Regional Weather Roundup
Issued by NWS

Home | Current Version | Previous Version | Text Only | Print | Product List | Glossary Off
Versions: 1 2 3 4 5 6 7 8 9 10 11 12 13 14 15 16 17 18 19 20 21 22 23 24 25 26 27 28 29 30 31 32 33 34 35 36 37 38 39 40 41 42 43 44 45 46 47 48 49 50

000
ASUS45 KBOU 010107
RWRCO

WEATHER ROUNDUP FOR COLORADO
NATIONAL WEATHER SERVICE DENVER/BOULDER CO
700 PM MDT SUN AUG 31 2014

NOTE: "FAIR" INDICATES FEW OR NO CLOUDS BELOW 12000 FEET WITH NO
SIGNIFICANT WEATHER AND/OR OBSTRUCTIONS TO VISIBILITY.

COZ001>005-013-030-031-010200-
...NORTHWEST COLORADO...

CITY           SKY/WX    TMP DP  RH WIND       PRES   REMARKS
CRAIG          CLEAR     67  42  40 NW7       30.03R
HAYDEN         CLEAR     64  39  39 N6        30.05S
MEEKER         PTCLDY    72  35  25 NW9       30.01S
MOUNT WERNER   NOT AVBL
STEAMBOAT SPGS PTCLDY    63  43  47 S3        30.07S
WALDEN         PTCLDY    55  37  50 W15       30.13R
$$

COZ006>008-011-010200-
...WEST CENTRAL VALLEYS...

CITY           SKY/WX    TMP DP  RH WIND       PRES   REMARKS
GRAND JUNCTION CLEAR     81  38  21 NW9       29.86F
MONTROSE       PTCLDY    83  32  16 W13       29.96R
EAGLE          PTCLDY    72  39  30 NW17G23   30.01R
RIFLE          PTCLDY    77  41  27 VRB3      29.93S
DELTA          PTCLDY    87  28  12 NW18      29.89S
NUCLA          PTCLDY    81  30  16 W9        30.00S
$$

COZ017>023-064>068-010200-
...SOUTHWEST COLORADO...

CITY           SKY/WX    TMP DP  RH WIND       PRES   REMARKS
DURANGO        PTCLDY    80  30  16 W23G31    30.05S
CORTEZ         CLEAR     84  33  16 W15G21    29.99F
PAGOSA SPRINGS PTCLDY    76  24  14 SW20G25   30.14S
TELLURIDE      PTCLDY    68  30  24 SW7G20    30.24S
WOLF CREEK PAS CLEAR     52  28  40 SW35G45   30.42R
$$

COZ009-010-012-014-032>034-037-058>063-010200-
...CENTRAL COLORADO...

CITY           SKY/WX    TMP DP  RH WIND       PRES   REMARKS
ASPEN          PTCLDY    69  28  21 N13G21    30.08R
BUENA VISTA    PTCLDY    64  34  32 SE6       30.11F
COPPER MTN     PTCLDY    54  19  26 W29G44    30.38S
BERTHOUD PASS  FAIR      37  37 100 W18G24    30.38F
COTTONWOOD PAS PTCLDY    61  28  29 W10G20    30.24F
GUNNISON       PTCLDY    66  43  42 CALM      30.11S
KREMMLING      PTCLDY    61  37  41 NW5       30.08R
LEADVILLE      PTCLDY    57  24  28 NW17G24   30.22R
MONARCH PASS   CLOUDY    48  30  49 W23G44    30.50R
SALIDA         PTCLDY    67  38  34 SW6       30.16R
SUNLIGHT       PTCLDY    54  41  62 CALM      30.32S
WILKERSON PASS NOT AVBL
$$

COZ069>075-010200-
...SAN LUIS VALLEY/SANGRE DE CRISTO MOUNTAINS...

CITY           SKY/WX    TMP DP  RH WIND       PRES   REMARKS
ALAMOSA        CLEAR     75  30  19 W15       30.09R
LA VETA PASS   NOT AVBL
SAGUACHE       NOT AVBL
$$

COZ035-036-038>040-010200-
...NORTHERN COLORADO FRONT RANGE...

CITY           SKY/WX    TMP DP  RH WIND       PRES   REMARKS
DENVER INTL AP MOCLDY    66  49  54 NE5       29.95R
DMNS CITY PARK   N/A     67  51  57 NE6G12    29.91F
AURORA         MOCLDY    65  49  54 CALM      29.97R
FRONT RANGE AP NOT AVBL
ERIE MUNI ARPT MOCLDY    67  50  54 E5        29.92S
BOULDER MUN AP MOCLDY    64  52  63 N3        29.93F
CENTENNIAL     MOCLDY    68  48  48 E5        29.97R
BROOMFIELD     MOCLDY    64  55  72 VRB6      29.94F
FORT COLLINS   MOCLDY    72  52  49 S9        29.91R
LONGMONT       RAIN      66  57  72 CALM      29.94S
$$

COZ041-046-047-076>085-087-088-010200-
...PIKES PEAK/PALMER DIVIDE AND SOUTHERN FOOTHILLS...

CITY           SKY/WX    TMP DP  RH WIND       PRES   REMARKS
COLO. SPRINGS  MOCLDY    79  37  22 VRB6      29.96R
A. F. ACADEMY  PTCLDY    75  32  20 NW14G21   29.98R
ELLICOTT       PTCLDY    72  48  42 E18       29.95R
FALCON         PTCLDY    69  48  47 NE13      30.02R
FORT CARSON    MOCLDY    77  49  38 S8        29.93R
LIMON          PTCLDY    69  48  47 E12       29.93R
MONUMENT HILL  PTCLDY    63  46  55 NE10      30.03R
TRINIDAD       CLEAR     85  32  15 W16       29.90S
$$

COZ042>045-048>051-090-091-010200-
...NORTHEAST COLORADO...

CITY           SKY/WX    TMP DP  RH WIND       PRES   REMARKS
GREELEY ARPT   CLOUDY    72  50  46 SW6       29.90S
AKRON          PTCLDY    70  50  49 CALM      29.89F
BURLINGTON     CLOUDY    71  50  47 VRB6      29.90R THUNDER
WRAY             N/A     72  55  54 CALM      29.85R
STERLING       PTCLDY    70  59  68 S3        29.84S
HOLYOKE        MOCLDY    66  54  63 SW3       29.83F
FORT MORGAN    PTCLDY    68  53  58 CALM      29.87F
$$

COZ086-089-092>099-010200-
...SOUTHEAST COLORADO...

CITY           SKY/WX    TMP DP  RH WIND       PRES   REMARKS
PUEBLO         PTCLDY    83  47  28 E18       29.83R
LA JUNTA       MOCLDY    77  50  38 E18       29.81R
LAMAR          PTCLDY    74  53  48 NE10      29.78R
SPRINGFIELD      N/A     80  56  43 NE20      29.78R
$$



USA.gov is the U.S. government's official web portal to all federal, state and local government web resources and services.